Probability
0 0 0 0 0 0 0 0 0 0 0 0 0 2 3 3 3 3 4 7 9 7 5 8 13 16 22 32 34 30 28 30 30 27 24 21 18 18 19 20 21 19 16 13
0 0 0 0 0 0 0 0 0 0 0 0 1 2 3 3 3 4 5 8 9 9 10 15 20 21 25 32 34 30 29 29 29 28 26 24 21 20 20 22 24 23 20 17
0 0 0 0 0 0 0 0 0 0 0 0 1 2 3 4 4 4 5 7 9 12 17 25 28 27 28 33 34 32 31 33 32 30 27 26 25 22 22 25 27 28 27 24
0 0 0 0 0 0 0 0 0 0 0 1 2 2 3 5 5 4 4 5 9 13 21 29 32 31 31 32 34 36 38 39 38 34 30 28 27 24 23 26 31 33 32 30
0 0 0 0 0 0 0 0 0 0 0 1 2 2 2 5 6 5 4 6 9 13 19 25 31 33 32 30 34 40 44 44 41 37 32 29 27 25 24 28 34 36 35 34
0 0 0 0 0 0 0 0 0 0 0 1 1 1 2 5 7 6 6 8 9 11 15 20 28 34 32 30 34 40 46 46 42 37 33 29 27 26 27 31 35 35 33 32
0 0 0 0 1 0 0 0 0 0 0 0 0 1 3 6 8 8 9 9 8 10 13 17 25 31 33 33 36 40 47 48 44 38 35 32 29 29 31 34 35 34 31 30
0 0 0 0 0 0 0 0 0 0 0 0 0 2 6 7 7 8 9 8 8 11 14 17 22 27 32 35 37 42 49 52 48 42 40 38 35 34 35 36 35 34 33 32
0 0 0 0 0 0 0 0 0 0 0 0 0 3 8 9 7 7 6 6 9 12 16 18 22 28 35 38 40 46 54 56 51 45 42 41 40 39 38 38 36 35 36 36
0 0 0 0 0 0 0 0 0 0 0 0 0 3 7 11 10 8 6 6 8 13 17 20 25 33 41 41 42 50 58 58 53 47 44 42 43 44 43 41 38 37 36 37
0 0 0 0 0 0 0 0 0 0 0 0 0 2 8 13 14 12 9 8 10 14 17 21 26 33 37 40 44 52 59 58 55 52 47 46 48 49 46 44 42 41 39 37
0 0 0 0 0 0 0 0 0 0 1 0 1 3 9 13 14 13 12 13 15 17 19 22 25 28 30 35 44 54 58 58 58 56 52 52 54 54 50 47 45 45 44 41
0 0 0 0 0 0 0 0 0 0 0 0 1 4 9 13 13 14 16 18 20 21 21 25 30 31 31 36 47 54 57 59 60 59 57 57 59 59 55 50 47 46 44 42
0 0 0 0 0 0 0 0 0 0 0 0 1 5 10 14 16 16 18 21 23 22 23 30 40 43 41 43 50 55 58 62 63 63 61 60 61 60 56 52 48 46 43 40
0 0 0 0 0 0 0 0 0 0 0 0 3 8 14 19 21 21 22 22 22 21 23 33 46 52 51 52 54 58 62 65 66 65 63 61 59 56 53 50 48 46 43 40
0 0 0 0 0 0 0 0 0 1 1 1 5 12 19 24 26 27 26 24 21 21 25 35 48 56 58 58 58 61 64 65 65 64 62 59 56 53 49 47 46 46 42 38
1 1 0 0 0 1 1 0 1 2 3 5 10 16 22 27 29 29 28 25 22 23 28 37 48 57 60 60 61 63 64 63 61 59 56 53 51 50 48 45 45 43 38 33
3 3 1 0 0 0 1 1 2 3 5 8 14 20 24 26 26 25 26 25 25 28 33 38 45 51 57 60 62 63 62 59 56 53 50 46 45 46 46 45 44 40 34 31
4 5 3 1 0 0 1 2 3 5 7 11 16 20 22 21 21 23 26 28 31 35 39 41 42 47 53 58 60 61 60 56 52 48 44 41 41 43 43 42 40 37 34 32
3 5 4 2 1 1 1 1 2 5 11 17 21 22 21 20 21 27 30 33 39 44 45 45 45 49 53 56 57 57 55 54 51 47 43 40 39 39 37 37 36 35 34 32
2 3 3 2 2 4 6 6 10 18 26 31 32 32 30 29 29 31 33 39 46 48 47 48 50 53 54 53 52 51 49 48 48 45 42 39 37 33 32 33 34 33 32 31
2 3 6 7 8 13 18 21 29 42 48 45 41 39 39 39 34 32 35 42 47 46 45 47 51 53 52 50 47 44 42 42 42 41 38 36 32 27 26 29 30 29 28 28
6 9 14 17 19 23 28 33 41 50 53 49 41 38 40 40 36 35 39 44 45 43 43 45 47 49 49 46 42 40 39 38 38 36 32 29 25 21 20 22 23 23 23 24
10 14 21 25 26 25 26 29 33 37 40 38 33 32 35 37 37 39 43 45 44 43 42 42 43 45 45 42 40 39 38 35 33 30 26 22 18 16 15 16 16 17 18 20
11 15 22 27 27 25 23 23 25 28 31 29 27 29 32 34 37 39 41 43 44 42 40 39 40 41 41 40 40 39 35 32 28 25 22 17 13 12 11 12 11 11 12 14
11 16 23 28 29 26 24 23 25 27 28 27 26 29 31 33 36 38 38 41 43 42 40 39 37 36 38 40 41 37 32 30 27 24 21 16 12 11 10 9 8 6 7 8
Wind_Speed
11 11 10 9 11 10 8 6 6 7 8 7 9 11 12 11 11 12 12 12 11 11 11 11 10 9 9 8 7 6 5 5 4 3 3 2 2 2 2 3 4 3 2 2
11 13 11 8 10 10 8 6 6 7 9 7 6 8 11 10 11 12 12 12 12 11 11 11 10 9 9 8 7 6 6 6 5 3 2 2 2 2 2 1 2 3 2 2
15 10 10 10 9 9 10 9 8 7 7 7 5 4 7 9 9 11 12 12 12 12 12 11 11 10 10 9 8 7 6 6 5 4 3 2 1 1 1 2 2 2 3 3
13 9 8 10 11 10 9 9 8 8 8 7 7 5 7 10 9 10 11 11 12 12 12 12 11 10 9 9 9 7 6 5 5 4 4 4 3 2 2 1 2 2 2 3
11 11 11 12 12 10 8 8 8 9 8 7 6 5 6 9 10 11 12 11 11 12 13 12 12 10 9 10 10 8 7 6 5 4 4 3 2 2 1 1 2 1 2 2
11 10 11 12 10 9 8 8 8 9 7 8 7 6 4 5 8 10 11 11 10 10 11 11 11 10 9 9 9 9 8 7 6 5 4 4 3 2 1 1 2 1 1 2
13 12 11 9 10 10 10 8 6 7 6 7 8 7 3 5 6 6 9 9 9 9 10 11 11 11 10 9 8 9 9 7 7 6 5 4 3 3 2 2 2 2 1 1
14 14 13 11 12 11 12 12 7 5 6 7 7 6 5 7 6 6 6 7 8 7 8 9 10 10 10 10 8 8 9 8 7 6 5 3 3 3 2 3 2 2 1 1
11 13 14 13 12 12 12 11 11 8 8 7 5 5 6 7 8 7 7 7 7 7 7 8 9 9 9 8 8 8 9 8 7 7 5 4 4 3 2 2 2 2 1 1
9 7 12 13 11 13 12 11 8 7 5 6 5 6 6 9 9 8 7 7 7 7 6 7 7 8 8 8 7 8 8 8 7 6 6 5 4 3 2 1 1 1 1 0
11 8 10 13 13 14 13 13 10 6 6 7 5 2 2 7 7 7 7 8 7 7 6 6 6 7 8 8 9 8 8 8 7 6 6 4 4 4 3 2 1 1 1 0
11 9 9 12 12 12 13 13 12 7 6 7 5 2 3 5 7 7 7 8 7 5 5 5 6 5 5 6 7 7 7 8 7 6 5 5 4 4 3 3 2 1 1 1
8 7 8 10 12 14 13 13 12 9 6 6 5 3 4 5 6 6 7 7 7 5 5 5 4 4 4 4 4 5 6 7 7 7 6 5 4 4 3 2 2 2 2 1
5 7 9 10 8 12 13 13 12 10 7 6 6 6 5 5 6 5 6 7 6 6 6 6 4 4 4 3 3 4 5 6 6 5 5 5 4 4 3 3 3 2 2 2
7 9 11 11 9 9 11 14 14 12 10 7 5 8 8 6 5 5 5 7 6 6 5 5 5 4 4 4 4 5 5 5 5 5 5 4 4 4 4 3 3 3 3 3
8 8 9 10 9 10 11 13 14 13 11 8 7 5 9 8 7 5 5 6 5 5 5 5 5 5 5 4 4 5 6 5 5 5 5 5 4 4 4 4 3 3 3 3
9 7 8 9 10 11 13 11 11 10 9 7 6 5 8 8 6 5 4 4 5 4 5 5 5 5 4 4 4 5 6 6 6 6 5 5 4 4 4 4 4 3 3 3
7 7 7 8 7 12 9 9 10 9 6 4 4 5 5 7 6 5 4 3 3 4 4 5 5 5 5 5 5 5 6 6 6 6 5 5 4 3 4 4 3 3 3 3
9 7 8 7 9 9 8 8 8 7 5 5 5 7 5 6 7 5 4 3 4 5 5 5 5 6 5 5 5 5 5 5 5 5 5 5 4 4 4 3 3 2 3 3
10 7 9 8 9 9 5 3 2 4 5 3 5 7 6 5 4 3 4 5 4 7 6 5 5 6 5 5 5 5 5 4 4 4 4 4 4 4 4 3 3 2 2 3
13 11 12 10 8 4 4 3 3 6 3 3 5 6 6 5 5 5 5 6 6 7 7 6 6 6 5 5 4 4 5 4 3 4 4 4 4 4 4 3 2 3 3 4
11 11 11 10 10 3 4 3 1 4 5 6 7 6 7 8 8 7 6 6 5 6 6 6 5 6 6 5 4 4 5 4 4 5 5 5 4 3 4 3 2 3 3 4
6 3 2 1 1 4 3 3 3 3 5 6 6 6 7 8 7 7 7 6 6 6 6 5 5 7 6 5 4 5 5 5 5 5 5 4 4 4 3 3 2 2 1 2
3 2 3 3 4 4 4 3 2 3 5 5 5 5 7 7 7 6 5 6 6 6 5 5 5 6 5 4 4 4 4 4 5 5 4 4 4 5 5 4 3 3 2 2
1 2 2 3 3 2 2 2 2 4 5 4 5 6 6 6 6 5 5 5 5 5 4 4 5 5 5 5 4 4 4 3 4 4 4 4 4 5 5 6 6 5 5 3
3 2 1 1 1 1 3 2 2 3 4 4 4 5 5 5 5 5 5 5 5 5 4 4 5 5 5 4 4 4 3 3 3 3 3 3 3 4 4 5 6 11 9 10
Wind_Direction
212 226 223 213 220 242 226 209 182 170 165 171 161 156 164 169 170 166 166 165 167 170 171 164 167 161 156 152 156 161 171 162 168 172 182 187 191 201 195 181 168 176 193 185
208 225 232 227 225 240 239 229 204 179 165 174 174 166 165 176 181 173 171 170 173 172 168 164 168 166 162 159 162 165 174 171 181 183 181 194 197 214 205 169 157 176 192 215
222 216 208 224 226 227 229 229 222 187 173 183 188 195 175 180 190 174 175 174 176 175 172 167 171 172 172 168 169 173 175 172 180 183 185 203 194 240 226 185 169 181 191 210
228 223 207 220 227 226 229 227 234 213 202 203 202 215 207 190 193 187 179 177 178 178 174 172 174 175 175 171 169 166 167 170 173 181 195 201 202 211 217 198 167 181 200 212
220 209 210 221 222 227 238 231 227 237 233 238 216 220 207 187 194 194 183 181 180 177 173 173 175 173 178 177 172 169 163 169 171 182 194 208 223 216 204 177 168 186 208 213
234 216 218 225 218 224 227 239 237 240 246 238 233 240 209 187 196 194 178 175 174 172 171 171 170 167 174 179 176 169 163 168 172 181 191 202 222 222 228 191 180 190 208 223
224 221 214 220 214 212 220 224 220 221 231 236 225 227 179 178 182 178 158 162 166 170 169 169 169 167 172 177 175 167 163 170 176 185 193 197 205 213 221 228 204 210 233 221
210 212 204 206 219 211 214 223 226 228 230 234 230 222 176 177 135 119 133 149 153 156 157 163 165 167 171 175 173 167 165 170 177 187 190 189 191 206 216 220 232 204 234 238
214 214 197 200 212 223 212 226 235 243 263 265 228 180 168 154 138 142 138 147 149 150 155 161 165 165 164 171 172 171 163 168 177 184 181 184 187 197 206 201 210 229 227 238
257 231 195 189 205 226 236 220 228 239 255 267 251 212 172 163 153 145 146 148 139 147 154 157 160 159 162 168 166 169 165 167 173 178 182 185 184 181 187 215 200 206 223 331
242 237 206 192 203 216 221 228 234 229 233 245 248 271 124 148 139 143 149 140 138 143 148 148 143 151 160 166 172 172 165 166 171 177 180 171 167 169 173 187 200 194 183 158
229 239 219 207 204 227 227 232 227 229 228 244 244 175 109 131 136 140 134 128 121 123 127 124 127 134 147 160 166 164 164 166 168 166 167 168 159 159 165 171 168 165 155 129
226 243 221 215 204 210 227 232 232 235 233 238 235 187 139 131 118 125 125 113 105 99 95 89 99 109 112 123 138 150 154 156 161 162 168 163 153 149 150 149 143 125 120 126
258 237 245 232 218 203 214 225 226 227 231 236 216 173 167 149 135 123 116 114 112 108 100 99 93 86 87 91 116 129 135 139 144 153 159 147 140 138 136 130 122 115 107 98
242 236 240 257 268 238 218 221 222 226 235 234 195 179 175 149 141 134 139 126 117 114 113 110 100 94 96 94 106 118 122 123 136 139 134 129 129 130 127 123 119 112 111 108
226 257 247 245 256 259 239 227 219 221 227 220 204 183 147 143 141 143 133 125 123 124 122 116 110 104 100 99 107 113 116 120 123 122 122 118 123 128 127 123 117 113 107 101
214 236 249 243 236 244 239 227 224 220 226 227 209 172 145 141 133 129 123 121 126 125 120 117 115 110 107 105 98 109 112 114 113 114 118 120 125 128 127 121 115 112 111 105
228 231 240 239 235 237 240 235 234 222 211 204 163 143 138 130 123 110 110 111 106 110 110 114 118 113 112 112 106 109 117 116 118 121 125 127 130 127 118 114 111 111 110 106
219 225 242 234 227 237 231 219 219 214 208 201 171 151 150 143 126 101 83 92 95 95 88 101 116 117 111 110 111 112 114 118 124 127 127 129 129 126 119 116 120 116 114 110
218 217 240 237 233 231 235 246 238 202 198 191 160 150 154 151 138 103 76 80 84 89 85 87 93 98 100 105 110 115 118 117 117 118 117 111 108 115 115 115 111 110 117 118
210 211 226 240 237 233 280 276 229 211 159 93 100 111 112 99 93 113 93 75 77 90 92 88 88 94 93 95 103 109 103 98 102 105 101 102 100 105 110 109 113 119 117 118
210 210 216 232 238 218 333 300 5 68 67 88 93 89 89 95 111 107 90 80 82 88 92 96 97 94 92 94 107 106 97 92 93 95 94 93 94 101 105 107 109 119 129 131
226 238 232 258 129 95 63 61 60 75 80 83 92 93 96 103 101 93 86 84 80 83 89 95 98 97 91 85 89 97 93 95 98 98 96 95 91 81 84 97 105 109 116 130
207 228 170 131 128 118 81 57 50 81 92 95 95 93 99 98 96 88 88 93 88 84 85 92 98 103 97 88 83 84 89 99 107 107 105 103 98 88 67 56 59 56 36 56
273 240 174 141 146 151 137 114 60 66 77 97 99 98 102 100 100 100 95 100 100 102 101 100 99 97 94 91 84 80 82 92 107 112 112 106 99 99 86 68 46 52 50 46
329 350 350 50 104 198 140 118 82 77 80 78 85 85 86 88 90 98 102 105 102 98 97 100 101 99 97 96 92 82 81 95 106 121 124 118 114 107 107 105 80 53 60 64